Regional Weather Roundup
Issued by NWS

Home | Current Version | Previous Version | Graphics & Text | Print | Product List | Glossary On
Versions: 1 2 3 4 5 6 7 8 9 10 11 12 13 14 15 16 17 18 19 20 21 22 23 24 25 26 27 28 29 30 31 32 33 34 35 36 37 38 39 40 41 42 43 44 45 46 47 48 49 50
000
ASUS43 KLOT 280003
RWRIL

ILLINOIS REGIONAL WEATHER ROUNDUP
NATIONAL WEATHER SERVICE CHICAGO/ROMEOVILLE IL
700 PM CDT TUE JUN 27 2017

NOTE: "FAIR" INDICATES FEW OR NO CLOUDS BELOW 12,000 FEET WITH NO
SIGNIFICANT WEATHER AND/OR OBSTRUCTIONS TO VISIBILITY.

* THESE STATIONS ARE NOT UNDER NWS QUALITY CONTROL. THEY ALSO MAY NOT
  REPORT WEATHER SUCH AS PRECIPITATION OR FOG.

ILZ001-002-007-009-015-016-024-280100-
NORTHWEST ILLINOIS

CITY           SKY/WX    TMP DP  RH WIND       PRES   REMARKS
MOLINE         SUNNY     74  46  36 S7        30.00F
6HR MIN TEMP:  73; 6HR MAX TEMP:  77;

STERLING*      SUNNY     73  47  39 VRB6      30.02F
SAVANNA*       SUNNY     74  47  38 S10       30.00F
$$

ILZ003-004-008-010-011-017-018-280100-
NORTH CENTRAL ILLINOIS

CITY           SKY/WX    TMP DP  RH WIND       PRES   REMARKS
ROCKFORD       PTSUNNY   73  45  36 SW6       30.02F
6HR MIN TEMP:  73; 6HR MAX TEMP:  77;

FREEPORT*      SUNNY     70  50  49 S5        30.03F
ROCHELLE*      SUNNY     71  46  39 SW7       30.03F
DE KALB*       SUNNY     73  45  37 SW9       30.04S
PERU*          SUNNY     73  45  37 W6        30.03F
$$

ILZ005-006-012>014-019>023-280100-
NORTHEAST ILLINOIS

CITY           SKY/WX    TMP DP  RH WIND       PRES   REMARKS
CHICAGO-OHARE  MOSUNNY   75  43  31 W5        30.01F
6HR MIN TEMP:  73; 6HR MAX TEMP:  78;

CHICAGO-MIDWAY PTSUNNY   75  45  34 SW6       30.02F
6HR MIN TEMP:  73; 6HR MAX TEMP:  77;

AURORA         SUNNY     74  45  35 SW10      30.04S
6HR MIN TEMP:  71; 6HR MAX TEMP:  77;

LANSING*       MOSUNNY   73  44  34 SW7       30.03F
JOLIET*        SUNNY     74  47  37 S7        30.04S
WAUKEGAN       SUNNY     68  49  50 SE10      30.02F
6HR MIN TEMP:  68; 6HR MAX TEMP:  74;

DUPAGE AIRPORT SUNNY     73  48  41 SW6       30.02F
6HR MIN TEMP:  70; 6HR MAX TEMP:  76;

WHEELING       SUNNY     73  46  38 S8        30.03F
6HR MIN TEMP:  71; 6HR MAX TEMP:  76;

MORRIS*        SUNNY     74  44  33 SW7       30.03R
ROMEOVILLE*    SUNNY     74  42  31 SW12      30.03F
$$

LMZ740>746-280100-
SOUTHERN LAKE MICHIGAN

STATION/POSITION SKY/WX   TEMP    WIND        PRES    VSBY  WAVE
                          AIR SEA DIR/SP/G                  HT/PER
                          (F)     (DEG/KT/KT) (MB)    (MI)  (FT/S)
SOUTHERN BUOY              63 62  180/ 12/ 12 1017.3          1
WILMETTE HARBOR            65 64  130/ 10/ 12   N/A           1/ 3
HARRISON CRIB              68     110/ 13/ 14   N/A
BURNHAM HARBOR             66                   N/A
CALUMET HARBOR             68      80/  9/ 12 1016.5F
BURNS HARBOR               70      60/  7/  9 1017.6F
MICHIGAN CITY              69      60/  6/  8   N/A
MICHIGAN CITY 6N           67 66   80/  6/  8   N/A           1
ST. JOSEPH                 69 69  160/  2/  4 1017.6F         1
$$

ILZ025>027-034>036-040-047-049-050-058-095>099-280100-
WEST-CENTRAL ILLINOIS

CITY           SKY/WX    TMP DP  RH WIND       PRES   REMARKS
QUINCY         SUNNY     76  52  43 SE8       30.00F
GALESBURG*     SUNNY     74  49  41 S9        30.02F
MACOMB*        SUNNY     74  46  36 S6        30.03F
JACKSONVILLE*  SUNNY     75  51  42 S8        30.03F
PITTSFIELD*    SUNNY     76  52  43 S5        30.03F
$$

ILZ028>032-037-038-041>044-048-051>054-059>061-280100-
CENTRAL ILLINOIS

CITY           SKY/WX    TMP DP  RH WIND       PRES   REMARKS
PONTIAC        SUNNY     74  46  37 S8        30.05F
BLOOMINGTON    SUNNY     73  45  36 SW6       30.06F
DECATUR        SUNNY     74  48  39 SE10      30.05F
PEORIA         SUNNY     75  47  36 S9        30.02F
6HR MIN TEMP:  73; 6HR MAX TEMP:  77;

LACON*         SUNNY     73  49  41 S7        30.02F
LINCOLN*       SUNNY     76  49  38 SE7       30.04F
SPRINGFIELD    SUNNY     77  51  40 S6        30.04F
6HR MIN TEMP:  76; 6HR MAX TEMP:  80;

TAYLORVILLE    SUNNY     75  49  40 S5        30.05S
6HR MIN TEMP:  73; 6HR MAX TEMP:  77;

$$

ILZ033-039-045-046-055>057-062-063-280100-
EAST-CENTRAL ILLINOIS

CITY           SKY/WX    TMP DP  RH WIND       PRES   REMARKS
CHAMPAIGN      SUNNY     73  43  33 S6        30.07S
RANTOUL*       SUNNY     74  46  37 S6        30.06F
MATTOON        SUNNY     73  49  42 S3        30.06F
PARIS*         SUNNY     71  53  52 CALM      30.08F
$$

ILZ079-100>102-280100-
SOUTHWEST ILLINOIS

CITY           SKY/WX    TMP DP  RH WIND       PRES   REMARKS
ALTON          MOSUNNY   75  54  46 SE8       30.03F
BELLEVILLE     SUNNY     79  53  40 S8        30.04F
CAHOKIA*       SUNNY     81  47  30 S7        30.02F HX  80
SPARTA*        MOSUNNY   77  51  39 SE8       30.05F
$$

ILZ064>066-069>071-074>076-080>082-084>086-088>090-092>094-280100-
SOUTH-CENTRAL ILLINOIS

CITY           SKY/WX    TMP DP  RH WIND       PRES   REMARKS
CARBONDALE     SUNNY     78  53  41 E6        30.05F
6HR MIN TEMP:  76; 6HR MAX TEMP:  80;

CAIRO*         MOSUNNY   80  55  41 CALM      30.05S HX  80
EFFINGHAM*     SUNNY     75  50  40 CALM      30.08S
MT. VERNON     SUNNY     77  53  43 SE3       30.06S
CENTRALIA*     SUNNY     78  54  43 S8        30.05S
SALEM*         MOSUNNY   78  51  39 S5        30.06S
METROPOLIS*    SUNNY     80  56  43 CALM      30.06S HX  80
$$

ILZ067-068-072-073-078-083-087-091-280100-
SOUTHEAST ILLINOIS

CITY           SKY/WX    TMP DP  RH WIND       PRES   REMARKS
LAWRENCEVILLE  SUNNY     76  48  37 W5        30.08S
FLORA*         SUNNY     78  53  42 SE6       30.06F
FAIRFIELD*     SUNNY     75  53  45 SE3       30.06S
HARRISBURG*    SUNNY     77  53  42 CALM      30.07S
ROBINSON*      SUNNY     73  49  42 SW3       30.09S
CARMI*         SUNNY     77  52  42 S3        30.06S
$$

ABBREVIATIONS USED IN REMARKS
   TC - TEMPERATURE IN CELSIUS
  WCI - WIND CHILL INDEX
   HX - HEAT INDEX
  VSB - VISIBILITY
$$





USA.gov is the U.S. government's official web portal to all federal, state and local government web resources and services.